Location: Unspecified
(0.0000°N, 0.0000°E)
Time: 00:59:03
(UTC+00:00)

Courier 1B Rocket - Pass Details

Date: 17 December 2018
Orbit: 920 x 1202 km, 28.3° (Epoch: 16 January)

Event Time Altitude Azimuth Distance (km) Brightness Sun altitude
Rises 13:42:36 0° 324° (NW) 3,903 8.1 55.2°
Reaches altitude 10° 13:46:10 10° 340° (NNW) 2,995 7.5 54.5°
Maximum altitude 13:51:26 20° 26° (NNE) 2,369 6.9 53.5°
Drops below altitude 10° 13:56:51 10° 71° (ENE) 3,104 7.4 52.5°
Sets 14:00:37 0° 87° (E) 4,087 7.9 51.8°
